EW1527 Weather Reports


time (UTC)temp
F
wind
direction
speed
knots
gust
knots
rain 1hr
in
rain 24hr
in
rain mn
in
humidity
%
barometer
mb
20260510164605 73 1 3.5 8.7 0.00 0.08 0.00 54 1014.3
20260510163101 72 1 4.3 8.7 0.00 0.08 0.00 56 1014.4
20260510163008 72 1 3.5 7.8 0.00 0.08 0.00 56 1014.4
20260510161601 71 1 0.9 10.4 0.00 0.08 0.00 59 1014.4
20260510160002 69 1 2.6 7.0 0.00 0.08 0.00 61 1014.4
20260510154600 69 1 4.3 9.6 0.00 0.08 0.00 61 1014.5
20260510151608 67 1 0.9 7.0 0.00 0.08 0.00 68 1014.6
20260510150110 65 1 3.5 7.8 0.00 0.08 0.00 72 1014.7
20260510150002 65 1 2.6 7.8 0.00 0.08 0.00 73 1014.7
20260510144608 64 1 0.9 5.2 0.00 0.08 0.00 77 1014.7
20260510143108 62 1 0.0 3.5 0.00 0.08 0.00 81 1014.7
20260510141559 60 1 0.0 2.6 0.00 0.08 0.00 87 1014.7
20260510140059 59 1 1.7 4.3 0.00 0.08 0.00 91 1014.6
20260510140004 59 1 0.9 4.3 0.00 0.08 0.00 92 1014.6
20260510134608 57 1 0.9 3.5 0.00 0.08 0.00 93 1014.6
20260510133100 55 1 0.0 2.6 0.00 0.08 0.00 94 1014.4
20260510131600 54 1 0.0 0.9 0.00 0.08 0.00 95 1014.5
20260510130119 53 1 0.0 0.0 0.00 0.08 0.00 95 1014.7
20260510130002 53 1 0.0 0.0 0.00 0.08 0.00 95 1014.6
20260510124604 52 1 0.0 0.0 0.00 0.08 0.00 95 1014.6
20260510123100 52 1 0.0 1.7 0.00 0.08 0.00 95 1014.4
20260510121559 51 1 0.0 5.2 0.00 0.08 0.00 94 1014.2
20260510120059 51 1 0.0 2.6 0.00 0.08 0.00 94 1014.0
20260510120002 51 1 0.0 1.7 0.00 0.08 0.00 94 1014.0
20260510114559 51 1 0.0 3.5 0.00 0.08 0.00 94 1014.0
20260510113112 51 1 0.0 3.5 0.00 0.08 0.00 94 1013.6
20260510111559 50 1 1.7 2.6 0.00 0.08 0.00 94 1013.9
20260510110059 50 1 0.9 3.5 0.00 0.08 0.00 94 1013.7
20260510110001 50 1 0.9 3.5 0.00 0.08 0.00 94 1013.7
20260510104559 50 1 0.0 2.6 0.00 0.08 0.00 94 1013.2
20260510103100 50 1 0.0 2.6 0.00 0.08 0.00 94 1013.2
20260510101546 50 1 0.0 2.6 0.00 0.08 0.00 94 1013.2
20260510100043 50 1 0.0 2.6 0.00 0.08 0.00 94 1012.9
20260510094540 50 1 0.0 2.6 0.00 0.08 0.00 94 1012.8
20260510093045 50 1 0.0 3.5 0.00 0.08 0.00 94 1012.8
20260510091544 49 1 0.0 3.5 0.00 0.08 0.00 94 1012.9
20260510090043 49 1 1.7 6.1 0.00 0.08 0.00 94 1013.0
20260510090012 49 1 0.9 6.1 0.00 0.08 0.00 94 1013.0
20260510084510 48 1 3.5 8.7 0.00 0.08 0.00 94 1013.2
20260510083010 48 1 5.2 8.7 0.00 0.08 0.00 94 1012.8
20260510081510 48 1 0.0 0.9 0.00 0.08 0.00 93 1012.2
20260510080015 48 1 0.0 0.0 0.00 0.08 0.00 93 1012.2
20260510074510 48 1 0.0 2.6 0.00 0.08 0.00 93 1012.2
20260510073011 48 1 0.0 4.3 0.00 0.08 0.00 93 1012.1
20260510071516 48 1 0.0 3.5 0.00 0.08 0.00 93 1012.1
20260510070012 49 1 1.7 3.5 0.00 0.08 0.00 93 1011.9
20260510064529 49 1 0.0 0.0 0.00 0.08 0.00 93 1011.6
20260510063010 49 1 0.0 0.0 0.00 0.08 0.00 93 1011.5
20260510061510 50 1 0.0 0.0 0.00 0.08 0.00 93 1011.6
20260510060013 51 1 0.0 0.0 0.00 0.08 0.00 93 1011.7
20260510054511 51 1 0.0 0.0 0.00 0.08 0.00 93 1011.9
20260510053026 51 1 0.0 0.0 0.00 0.08 0.00 93 1011.9
20260510051521 51 1 0.0 0.0 0.00 0.08 0.00 93 1012.0
20260510050018 51 1 0.0 0.0 0.00 0.08 0.00 93 1012.1
20260510044512 51 1 0.0 0.0 0.00 0.08 0.00 93 1012.2
20260510043012 51 1 0.0 0.0 0.00 0.08 0.00 93 1012.3
20260510041519 51 1 0.0 0.0 0.00 0.08 0.00 92 1012.3
20260510040017 51 1 0.0 0.0 0.00 0.08 0.00 93 1012.4
20260510034513 52 1 0.0 0.0 0.00 0.08 0.08 93 1012.2
20260510033012 52 1 0.9 1.7 0.00 0.08 0.08 93 1012.1
20260510031522 52 1 0.9 2.6 0.00 0.08 0.08 92 1011.9
20260510030015 52 1 0.9 2.6 0.00 0.08 0.08 92 1011.9
20260510024512 52 1 1.7 2.6 0.00 0.08 0.08 92 1011.9
20260510023012 52 1 0.9 2.6 0.00 0.08 0.08 92 1011.8
20260510021516 53 1 0.0 0.0 0.00 0.08 0.08 92 1011.8
20260510020019 53 1 0.9 2.6 0.00 0.08 0.08 92 1011.7
20260510014513 53 1 0.9 3.5 0.00 0.08 0.08 92 1011.7
20260510013013 53 1 1.7 3.5 0.00 0.08 0.08 92 1011.7
20260510011513 53 1 1.7 3.5 0.00 0.08 0.08 92 1011.7
20260510010015 53 1 0.9 3.5 0.00 0.08 0.08 91 1011.5
20260510004513 53 1 0.9 3.5 0.00 0.08 0.08 91 1011.3
20260510003013 53 1 0.0 1.7 0.00 0.08 0.08 91 1011.4
20260510001512 54 1 0.9 2.6 0.00 0.08 0.08 90 1011.2
20260510000018 55 1 0.0 0.0 0.00 0.08 0.08 90 1011.3
20260509234514 55 1 0.0 0.0 0.00 0.08 0.08 90 1011.3
20260509233018 55 1 0.0 0.0 0.00 0.08 0.08 90 1011.2
20260509231513 55 1 0.0 3.5 0.00 0.08 0.08 90 1011.1
20260509230015 56 1 0.9 2.6 0.00 0.08 0.08 91 1011.1
20260509224513 55 1 1.7 4.3 0.00 0.08 0.08 91 1011.1
20260509223013 55 1 1.7 6.1 0.00 0.08 0.08 90 1011.1
20260509221513 55 1 2.6 4.3 0.01 0.08 0.08 90 1011.1
20260509220014 55 1 1.7 5.2 0.04 0.08 0.08 90 1011.2
20260509214513 55 1 2.6 5.2 0.08 0.08 0.08 89 1011.3
20260509213017 55 1 0.0 4.3 0.08 0.08 0.08 88 1011.7
20260509211520 56 1 0.9 1.7 0.07 0.07 0.07 86 1011.6
20260509210014 56 1 1.7 5.2 0.03 0.03 0.03 84 1011.3
20260509204513 56 1 0.0 4.3 0.00 0.00 0.00 82 1011.0
20260509203023 57 1 1.7 7.0 0.00 0.00 0.00 81 1011.3
20260509201513 57 1 2.6 7.8 0.00 0.00 0.00 83 1011.0
20260509200015 57 1 4.3 10.4 0.00 0.00 0.00 81 1011.3
20260509194512 57 1 5.2 10.4 0.00 0.00 0.00 81 1011.3
20260509193013 56 1 2.6 6.1 0.00 0.00 0.00 83 1011.8
20260509191512 56 1 3.5 7.8 0.00 0.00 0.00 82 1012.2
20260509190015 57 1 2.6 7.8 0.00 0.00 0.00 79 1012.0
20260509184511 57 1 3.5 9.6 0.00 0.00 0.00 78 1012.2
20260509183014 58 1 5.2 10.4 0.00 0.00 0.00 78 1012.2
20260509181511 59 1 2.6 9.6 0.00 0.00 0.00 74 1012.2
20260509180013 59 1 2.6 6.1 0.00 0.00 0.00 72 1012.2
20260509174528 59 1 1.7 7.0 0.00 0.00 0.00 72 1012.1
20260509173011 59 1 4.3 7.8 0.00 0.00 0.00 70 1012.1
20260509171531 60 1 2.6 12.2 0.00 0.00 0.00 73 1012.3
20260509170014 60 1 3.5 10.4 0.00 0.00 0.00 71 1012.3